Location: Newark
(47.5783°N, 6.7622°E)
Time: 13:01:50
(UTC+00:00)

N. Korean satellite - Visible Passes

Search period start: 19 January 2020 00:00
Search period end: 29 January 2020 00:00
Orbit: 454 x 508 km, 97.2° (Epoch: 18 January)

Date Brightness Start Highest point End Pass type
(mag) Time Alt. Az. Time Alt. Az. Time Alt. Az.
19 Jan 7.5 05:10:15 10° NNE 05:13:40 48° E 05:17:07 10° S visible
19 Jan 9.6 17:23:01 10° SW 17:25:32 19° W 17:28:04 10° NW visible
20 Jan 8.9 04:45:08 10° NE 04:48:05 24° E 04:51:01 10° SSE visible
20 Jan 7.6 06:18:29 10° NNW 06:21:25 25° WNW 06:24:21 10° SW visible
20 Jan 8.2 16:56:41 10° SSW 16:59:54 37° W 17:03:08 10° NNW visible
21 Jan 9.9 04:20:40 10° ENE 04:22:23 13° E 04:24:06 10° ESE visible
21 Jan 6.7 05:52:37 10° N 05:56:02 48° WNW 05:59:29 10° SSW visible
22 Jan 6.6 05:27:01 10° NNE 05:30:35 81° ESE 05:34:09 10° S visible
22 Jan 9.9 17:41:04 10° WSW 17:42:34 12° W 17:44:03 10° WNW visible
23 Jan 8.0 05:01:41 10° NNE 05:05:02 38° E 05:08:25 10° SSE visible
23 Jan 8.1 06:35:49 10° NNW 06:38:10 17° WNW 06:40:32 10° WSW visible
23 Jan 9.2 17:14:03 10° SSW 17:16:51 23° W 17:19:41 10° NW visible
24 Jan 9.3 04:36:42 10° NE 04:39:24 20° E 04:42:08 10° SE visible
24 Jan 7.3 06:09:41 10° N 06:12:51 31° WNW 06:16:02 10° SW visible
24 Jan 7.7 16:47:56 10° S 16:51:14 48° W 16:54:35 10° NNW visible
25 Jan 10.2 04:12:54 10° ENE 04:13:41 11° E 04:14:28 10° ESE visible
25 Jan 6.5 05:43:55 10° N 05:47:27 61° WNW 05:51:00 10° SSW visible
26 Jan 7.0 05:18:23 10° NNE 05:21:57 64° ESE 05:25:33 10° S visible
26 Jan 9.8 17:31:45 10° SW 17:33:50 15° W 17:35:57 10° NW visible
27 Jan 8.5 04:53:08 10° NNE 04:56:23 31° E 04:59:38 10° SSE visible
27 Jan 7.8 06:26:53 10° NNW 06:29:37 21° WNW 06:32:22 10° WSW visible
27 Jan 8.8 17:05:07 10° SSW 17:08:09 29° W 17:11:14 10° NNW visible
28 Jan 9.6 04:28:20 10° NE 04:30:43 17° E 04:33:07 10° SE visible
28 Jan 7.0 06:00:54 10° N 06:04:15 38° WNW 06:07:39 10° SW visible
